TimeCDT,TemperatureF,Dew PointF,Humidity,Sea Level PressureIn,VisibilityMPH,Wind Direction,Wind SpeedMPH,Gust SpeedMPH,PrecipitationIn,Events,Conditions,WindDirDegrees,DateUTC
12:15 AM,-9999,-9999,N/A,29.72,10.0,SW,19.6,28.8,N/A,,Clear,220,2013-03-16 05:15:00
12:35 AM,64.4,48.2,56,29.72,10.0,SW,19.6,27.6,N/A,,Clear,220,2013-03-16 05:35:00
12:55 AM,-9999,-9999,N/A,29.71,10.0,SW,19.6,26.5,N/A,,Clear,220,2013-03-16 05:55:00
1:15 AM,-9999,-9999,N/A,29.71,10.0,SW,18.4,24.2,N/A,,Clear,220,2013-03-16 06:15:00
1:35 AM,62.6,48.2,59,29.72,10.0,SW,18.4,24.2,N/A,,Clear,220,2013-03-16 06:35:00
1:55 AM,-9999,-9999,N/A,29.72,10.0,SW,16.1,21.9,N/A,,Clear,220,2013-03-16 06:55:00
2:15 AM,62.6,48.2,59,29.72,10.0,SW,17.3,25.3,N/A,,Clear,220,2013-03-16 07:15:00
2:35 AM,62.6,48.2,59,29.71,10.0,SW,16.1,23.0,N/A,,Clear,220,2013-03-16 07:35:00
2:55 AM,60.8,46.4,59,29.71,10.0,SW,13.8,25.3,N/A,,Clear,220,2013-03-16 07:55:00
3:15 AM,-9999,-9999,N/A,29.70,10.0,SW,10.4,19.6,N/A,,Clear,230,2013-03-16 08:15:00
3:35 AM,-9999,-9999,N/A,29.69,10.0,SW,11.5,18.4,N/A,,Clear,230,2013-03-16 08:35:00
3:55 AM,60.8,46.4,59,29.70,10.0,SW,10.4,-,N/A,,Clear,230,2013-03-16 08:55:00
4:15 AM,60.8,46.4,59,29.70,10.0,SW,10.4,-,N/A,,Clear,230,2013-03-16 09:15:00
4:35 AM,59.0,46.4,63,29.70,10.0,SW,9.2,-,N/A,Thunderstorm,Clear,230,2013-03-16 09:35:00
4:55 AM,59.0,46.4,63,29.70,10.0,SW,11.5,-,N/A,,Clear,220,2013-03-16 09:55:00
5:15 AM,59.0,46.4,63,29.71,10.0,SW,9.2,-,N/A,,Clear,220,2013-03-16 10:15:00
5:35 AM,59.0,46.4,63,29.71,10.0,SW,10.4,-,N/A,,Clear,230,2013-03-16 10:35:00
5:55 AM,59.0,46.4,63,29.72,10.0,SW,9.2,-,N/A,,Clear,230,2013-03-16 10:55:00
6:15 AM,57.2,46.4,67,29.72,10.0,SW,9.2,-,N/A,,Clear,230,2013-03-16 11:15:00
6:35 AM,57.2,46.4,67,29.72,10.0,SW,11.5,-,N/A,,Clear,230,2013-03-16 11:35:00
6:55 AM,57.2,46.4,67,29.73,10.0,SW,9.2,-,N/A,,Clear,230,2013-03-16 11:55:00
7:15 AM,57.2,46.4,67,29.73,10.0,WSW,10.4,16.1,N/A,,Clear,240,2013-03-16 12:15:00
7:35 AM,59.0,46.4,63,29.74,10.0,WSW,11.5,-,N/A,,Clear,240,2013-03-16 12:35:00
7:55 AM,59.0,46.4,63,29.75,10.0,WSW,9.2,-,N/A,,Clear,240,2013-03-16 12:55:00
8:15 AM,59.0,46.4,63,29.75,10.0,WSW,11.5,-,N/A,,Clear,250,2013-03-16 13:15:00
8:35 AM,60.8,46.4,59,29.76,10.0,WSW,11.5,16.1,N/A,,Clear,240,2013-03-16 13:35:00
8:55 AM,60.8,46.4,59,29.76,10.0,WSW,11.5,-,N/A,,Clear,240,2013-03-16 13:55:00
9:15 AM,62.6,46.4,55,29.77,10.0,WSW,13.8,18.4,N/A,,Clear,250,2013-03-16 14:15:00
9:35 AM,-9999,-9999,N/A,29.78,10.0,WSW,12.7,-,N/A,,Clear,250,2013-03-16 14:35:00
9:55 AM,64.4,48.2,56,29.79,10.0,West,16.1,20.7,N/A,,Clear,270,2013-03-16 14:55:00
10:15 AM,-9999,-9999,N/A,29.80,10.0,West,13.8,19.6,N/A,,Clear,280,2013-03-16 15:15:00
10:35 AM,62.6,46.4,55,29.83,10.0,WNW,17.3,23.0,N/A,,Clear,300,2013-03-16 15:35:00
10:55 AM,-9999,-9999,N/A,29.84,10.0,WNW,13.8,-,N/A,,Clear,300,2013-03-16 15:55:00
11:15 AM,60.8,46.4,59,29.85,10.0,NW,15.0,19.6,N/A,,Clear,310,2013-03-16 16:15:00
11:35 AM,60.8,44.6,55,29.85,10.0,North,15.0,18.4,N/A,,Clear,350,2013-03-16 16:35:00
11:55 AM,59.0,44.6,59,29.88,10.0,North,13.8,-,N/A,,Clear,350,2013-03-16 16:55:00
12:15 PM,57.2,42.8,59,29.90,10.0,North,11.5,19.6,N/A,,Clear,350,2013-03-16 17:15:00
12:35 PM,55.4,42.8,63,29.92,7.0,NNW,13.8,19.6,N/A,,Scattered Clouds,340,2013-03-16 17:35:00
12:55 PM,51.8,41.0,67,29.92,5.0,NNW,16.1,21.9,N/A,,Haze,340,2013-03-16 17:55:00
1:15 PM,51.8,41.0,67,29.94,5.0,NNW,12.7,19.6,N/A,,Haze,340,2013-03-16 18:15:00
1:35 PM,48.2,41.0,76,29.94,4.0,North,11.5,-,N/A,,Haze,350,2013-03-16 18:35:00
1:55 PM,46.4,39.2,76,29.94,4.0,North,11.5,-,N/A,,Haze,350,2013-03-16 18:55:00
2:15 PM,46.4,39.2,76,29.96,4.0,NNW,8.1,-,N/A,,Haze,330,2013-03-16 19:15:00
2:35 PM,48.2,39.2,71,29.96,4.0,North,11.5,-,N/A,,Haze,350,2013-03-16 19:35:00
2:55 PM,48.2,37.4,66,29.95,5.0,North,8.1,-,N/A,,Haze,360,2013-03-16 19:55:00
3:15 PM,50.0,37.4,62,29.95,7.0,North,12.7,18.4,N/A,,Scattered Clouds,10,2013-03-16 20:15:00
3:35 PM,50.0,37.4,62,29.95,7.0,North,12.7,-,N/A,,Clear,360,2013-03-16 20:35:00
3:55 PM,50.0,37.4,62,29.95,7.0,NNE,13.8,19.6,N/A,,Scattered Clouds,20,2013-03-16 20:55:00
4:15 PM,50.0,37.4,62,29.93,7.0,North,11.5,19.6,N/A,,Clear,10,2013-03-16 21:15:00
4:35 PM,50.0,37.4,62,29.97,7.0,North,11.5,-,N/A,,Clear,350,2013-03-16 21:35:00
4:55 PM,48.2,37.4,66,29.96,7.0,NNE,9.2,-,N/A,,Scattered Clouds,20,2013-03-16 21:55:00
5:15 PM,48.2,37.4,66,29.95,7.0,North,10.4,-,N/A,,Mostly Cloudy,10,2013-03-16 22:15:00
5:35 PM,46.4,37.4,71,29.97,7.0,North,9.2,-,N/A,,Mostly Cloudy,360,2013-03-16 22:35:00
5:55 PM,46.4,37.4,71,29.98,7.0,North,10.4,-,N/A,,Mostly Cloudy,350,2013-03-16 22:55:00
6:15 PM,46.4,35.6,66,29.99,7.0,North,10.4,-,N/A,,Mostly Cloudy,360,2013-03-16 23:15:00
6:35 PM,44.6,35.6,71,30.00,7.0,North,10.4,-,N/A,,Scattered Clouds,350,2013-03-16 23:35:00
6:55 PM,44.6,35.6,71,29.99,7.0,North,10.4,-,N/A,,Scattered Clouds,10,2013-03-16 23:55:00
7:15 PM,44.6,35.6,71,29.98,5.0,North,10.4,17.3,N/A,,Haze,10,2013-03-17 00:15:00
7:35 PM,42.8,37.4,81,29.98,7.0,North,10.4,17.3,N/A,,Mostly Cloudy,10,2013-03-17 00:35:00
7:55 PM,42.8,37.4,81,29.99,7.0,NNE,12.7,16.1,N/A,,Overcast,30,2013-03-17 00:55:00
8:15 PM,42.8,35.6,76,30.00,7.0,NNE,11.5,18.4,N/A,,Overcast,30,2013-03-17 01:15:00
8:35 PM,42.8,35.6,76,30.01,7.0,North,10.4,-,N/A,,Overcast,10,2013-03-17 01:35:00
8:55 PM,42.8,35.6,76,30.01,7.0,North,6.9,-,N/A,,Mostly Cloudy,10,2013-03-17 01:55:00
9:15 PM,41.0,33.8,76,30.02,10.0,NNE,9.2,-,N/A,,Scattered Clouds,20,2013-03-17 02:15:00
9:35 PM,41.0,33.8,76,30.02,10.0,North,6.9,-,N/A,,Scattered Clouds,10,2013-03-17 02:35:00
9:55 PM,41.0,33.8,76,30.03,10.0,NNE,8.1,-,N/A,,Scattered Clouds,20,2013-03-17 02:55:00
10:15 PM,39.2,33.8,81,30.02,10.0,NNE,10.4,-,N/A,,Scattered Clouds,30,2013-03-17 03:15:00
10:35 PM,37.4,33.8,87,30.02,10.0,NE,8.1,-,N/A,,Clear,40,2013-03-17 03:35:00
10:55 PM,37.4,33.8,87,30.02,10.0,NNE,11.5,-,N/A,,Scattered Clouds,30,2013-03-17 03:55:00
11:15 PM,37.4,35.6,93,30.02,10.0,NNE,6.9,-,N/A,,Mostly Cloudy,20,2013-03-17 04:15:00
11:35 PM,37.4,33.8,87,30.02,10.0,NNE,6.9,-,N/A,,Mostly Cloudy,30,2013-03-17 04:35:00
11:55 PM,37.4,33.8,87,30.00,10.0,NE,6.9,-,N/A,,Scattered Clouds,40,2013-03-17 04:55:00